TITAN 3C TRANSTAGE DEB, 1964

Orbit data source: Space-Track

TITAN 3C TRANSTAGE DEB, 1964 is space debris in LEO originally from a launch on Fri, 15 Oct 1965 UTC launched from the Air Force Eastern Test Range (AFETR). Debris objects in space refer to the collection of defunct objects orbiting the Earth. Examples of debris include non-operational satellites, rocket bodies, and fragments generated from explosions, collisions, or faulty payload assembly.

Loading next visibility...
Identifier
1964, 1965-082GZ
Orbit
LEO
Last TLE update
9 hours ago
Origin
Manufacturer
Unknown
Mission
Spacecraft
Bus & Motor
Unknown
Mass
Unknown
Launch date (UTC)
1965-10-15 (60 years ago)
Launch vehicle
Unknown
Launch site
Air Force Eastern Test Range (AFETR)
Object type
Payload
Rocket body
Debris
Shape & HBR
Unknown
Radar Cross Section
Small (<0.1 m²)

Expand to show TLE details & history

TLE from 9 hours ago
0 TITAN 3C TRANSTAGE DEB
1 01964U 65082GZ  25186.57646414  .00000861  00000-0  29372-3 0  9991
2 01964  32.1948 278.3888 0177894 149.5491 211.5613 14.25333218 68142
Epoch: 2025-07-05T13:50Z
TLE epoch observation values (Epoch: 2025-07-05T13:50:06.501Z)
Latitude
0.00001°
Longitude
147.04921°
Altitude
915.552 km
Speed
7.34 km/s
True Right ascension
18h 33m 33s
True Declination
0° 00' 00"
Sunlit
Object was in full shadow at epoch
Visualization orbit readout
Latitude
30.99735°
Longitude
-106.65843°
Altitude
718.735 km
Speed
7.547 km/s
Apparent Right ascension
00h 19m 42s
Apparent Declination
-2° 26' 53"
Sunlit
Object is in daylight
Visualization observer readout
Local Sidereal Time
10:40:22
Azimuth
322.608° NNW
Elevation
-46.288°
Doppler factor
1
Orbital elements
Apogee altitude
938.788 km
Perigee altitude
683.011 km
Semi-major axis
7,189.036 km
Eccentricity
0.01779
Inclination
32.1948°
RAAN
278.3888°
Arg. of periapsis
149.5491°
True anomaly
Unknown
Mean anomaly
211.5613°
Eccentric anomaly
Unknown
Mean motion
3.56071 °/min
Orbital period
101.1 mins
BSTAR
0.00029372
Loading maneuver chart data...
Loading SW <> Apogee altitude chart data...

TITAN 3C TRANSTAGE DEB Visibility forecast

Observer location: undefined°, undefined°

Span
Click to sort rows by Start time (UTC) header in descending order
Start Az.
Max El. time (UTC)
Max El. Az.
Max El.
End time (UTC)
End Az.
7 mins2025-07-06 10:16:07.700Z212.469° SW2025-07-06 10:20:07.700Z156.214° SSE24.119°2025-07-06 10:23:07.700Z116.22° SE
7 mins2025-07-06 12:03:07.700Z233.585° WSW2025-07-06 12:06:07.700Z183.515° SSW30.443°2025-07-06 12:10:07.700Z119.163° SE
6 mins2025-07-06 13:50:07.700Z237.883° WSW2025-07-06 13:53:07.700Z188.942° SSW24.084°2025-07-06 13:56:07.700Z145.092° SSE
|